Tracking 19832 objects as of 26-Aug-2019
HD Live streaming from Space Station
objects crossing your sky now

SATCOM 3

Track SATCOM 3 now!
SATCOM 3 is classified as:


NORAD ID: 11635
Int'l Code: 1979-101A
Perigee: 8,228.3 km
Apogee: 35,594.3 km
Inclination: 9.8 °
Period: 788.9 minutes
Semi major axis: 28282 km
RCS: 6.1128 m2 (large)
Launch date: December 7, 1979
Source: United States (US)
Launch site: AIR FORCE EASTERN TEST RANGE (AFETR)
aabbcc
Your satellite tracking list
Your tracking list is empty




NASA's NSSDC Master Catalog

Two Line Element Set (TLE):
1 11635U 79101A   19235.64396667 -.00000151 +00000-0 +00000-0 0  9999
2 11635 009.7547 333.6704 4838014 350.1534 354.1523 01.82528636178511
Source of the keplerian elements: AFSPC